1st Responders/1st Detectors/Storm Spotters Weather Summary for Jackson County, KY

Forecast Maps


Reg. NEXRAD Animation


National Fire Danger: Day 1 & 2 Map

Current NWS Watch/Warnings

SPC Convective Day 1 Outlook


Day 2 Outlook

(Click images to enlarge|Page will refresh every 5 minutes)
UK Ag. Weather Center Desktop Severe Weather Service[HERE]
Jackson County, KY Hazardous Weather Outlook Webcast
(9 AM to 9 PM Mon-Fri)
[Fast]
[Dial-up]


UKAWC 1st Detectors/1st Responders Precision Weather Forecast For JACKSON County, Kentucky
(based on the NWS County Digital Forecast)

ISSUED AT 05:00 UTC ON THURSDAY JUN 04 2020
DAY THURSDAY
EDT 3HR 2A 3A 4A 5A 6A 7A 8A 9A 10A 11A NOON 1P 2P 3P 4P 5P 6P 7P
MAX/MIN -- -- -- -- -- -- 67° -- -- -- -- -- -- -- -- -- -- 83°
TEMP 70° 68° 67° 67° 67° 68° 70° 72° 74° 76° 79° 81° 83° 83° 83° 81° 79° 79°
SKY COVER 19% 25% 33% 41% 45% 47% 49% 51% 53% 55% 59% 62% 66% 66% 67% 67% 66% 66%
Clouds
DEW PT 65° 65° 65° 65° 65° 65° 65° 65° 65° 65° 65° 65° 67° 65° 65° 65° 65° 65°
RH 86% 87% 90% 90% 89% 86% 84% 79% 74% 69% 62% 58% 58% 56% 56% 58% 62% 64%
POP 12HR -- -- -- -- -- -- 9% -- -- -- -- -- -- -- -- -- -- --
RAIN/SNOW (liq.equ) 0.00in -- -- -- -- -- 0.00in -- -- -- -- -- 0.04in -- -- -- -- --
SNOWFALL 0in -- -- -- -- -- 0in -- -- -- -- -- 0in -- -- -- -- --
WIND SPEED(MPH) 1 1 1 2 2 1 5 5 6 7 7 7 7 7 7 7 6 6
WIND Gust(MPH) 2 2 5 5 6 5 7 9 13 15 15 16 15 16 15 15 14 14
WIND DIR SW SW SW SW SW SW SW SW SW SW SW SW SW SW SW SW SW SW
DEW Mod Dew Mod Dew Mod Dew Mod Dew Mod Dew Mod Dew Lgt Dew Lgt Dew Lgt Dew -- -- -- -- -- -- -- -- --
HeatIndex 70 68 67 67 67 68 70 72 74 76 82 84 85 85 85 84 82 79
Rain Showers -- -- -- -- -- -- -- -- Slight Chance Slight Chance Chance Chance Chance Chance Chance Likely Likely Chance
Thunder Storm -- -- -- -- -- -- -- -- -- Slight Chance Slight Chance Chance Chance Chance Chance Likely Likely Chance
WIND CHILL -- -- -- -- -- -- -- -- -- -- -- -- -- -- -- -- -- --
SPRAY COND
DRY COND
LIVESTOCK HEATSTRESS 69.14 67.34 66.55 66.55 66.50 67.29 69.01 70.48 71.83 73.07 74.78 75.87 77.41 77.14 77.14 75.87 74.78 75.00



DAY FRIDAY SATURDAY SUNDAY MONDAY TUESDAY WEDNESDAY
EDT 6HR 8P 9P 10P 11P MIDN 1A 2A 3A 4A 5A 6A 7A 8A 9A 10A 11A NOON 1P 2P 5P 8P 11P 2A 5A 8A 11A 2P 5P 8P 2A 8A 2P 8P 2A 8A 2P 8P 2A 8A 2P 8P 2A 8A 2P 8P
MAX/MIN -- -- -- -- -- -- -- -- -- -- -- -- 67° -- -- -- -- -- -- 85° -- -- -- -- 65° -- -- 86° -- -- 63° 83° -- -- 58° 85° -- -- 63° 86° -- -- 67° 83° --
TEMP 76° 74° 72° 70° 68° 68° 67° 67° 67° 67° 67° 67° 67° 70° 74° 77° 81° 81° 83° 81° 79° 72° 68° 67° 68° 77° 83° 86° 81° 67° 63° 81° 76° 63° 61° 83° 79° 65° 67° 83° 79° 70° 68° 79° 76°
SKY COVER 65% 66% 66% 67% 66% 64% 63% 64% 66% 67% 68% 69% 70% 70% 70% 70% 69% 68% 67% 55% 57% 68% 54% 51% 52% 49% 37% 34% 26% 24% 23% 28% 41% 45% 37% 34% 35% 38% 47% 47% 45% 55% 60% 59% 56%
Clouds
DEW PT 65° 65° 65° 65° 65° 65° 65° 65° 65° 65° 65° 65° 65° 65° 65° 67° 67° 67° 67° 65° 67° 67° 67° 67° 67° 68° 67° 67° 67° 65° 61° 56° 58° 54° 56° 58° 61° 61° 63° 65° 65° 65° 65° 63° 61°
RH 68% 75% 81% 83% 86% 86% 89% 90% 90% 93% 96% 96% 92% 84% 73% 68% 62% 60% 57% 58% 69% 84% 93% 99% 96% 73% 60% 51% 64% 89% 93% 42% 53% 74% 80% 40% 54% 87% 84% 55% 62% 84% 90% 60% 62%
POP 12HR 59% -- -- -- -- -- -- -- -- -- -- -- 50% -- -- -- -- -- -- -- 53% -- -- -- 41% -- -- -- 40% -- 5% -- 4% -- 4% -- 8% -- 13% -- 33% -- 35% -- 46%
RAIN/SNOW (liq.equ) 0.30in -- -- -- -- -- 0.04in -- -- -- -- -- 0.04in -- -- -- -- -- 0.03in -- 0.03in -- 0.00in -- 0.03in -- 0.02in -- 0.03in -- -- -- -- -- -- -- -- -- -- -- -- -- -- -- --
SNOWFALL 0in -- -- -- -- -- 0in -- -- -- -- -- 0in -- -- -- -- -- 0in -- 0in -- 0in -- 0in -- 0in -- 0in -- -- -- -- -- -- -- -- -- -- -- -- -- -- -- --
WIND SPEED(MPH) 2 1 1 2 2 2 1 2 2 2 2 1 1 2 5 5 5 5 5 5 1 0 0 0 0 1 2 5 1 0 1 6 6 5 2 6 5 1 1 6 5 5 5 7 5
WIND DIR SW S S S S S S S SW SW SW SW SW SW SW SW SW SW SW SW SW S SW SW SW W W NW N NE NE NE NE E E E E E S S SE S SW SW SW
HeatIndex 76 74 72 70 68 68 67 67 67 67 67 67 67 70 74 77 83 84 86 84 79 72 68 67 68 77 86 89 83 67 63 81 76 63 61 83 81 65 67 86 82 70 68 79 76
Rain Showers Chance Chance Chance Chance Chance Chance Chance Chance Chance Chance Chance Chance Slight Chance Chance Chance Chance Chance Chance Chance Chance Chance Chance Slight Chance Slight Chance Chance Chance Chance Chance -- -- -- -- -- -- -- -- -- -- Slight Chance Chance Chance Chance Chance Chance Chance
Thunder Storm Chance Chance Chance Chance Chance Slight Chance -- -- -- -- -- -- -- -- -- Slight Chance Slight Chance Chance Chance Chance Slight Chance -- -- -- -- -- Chance Chance -- -- -- -- -- -- -- -- -- -- Slight Chance Chance Chance Slight Chance -- Chance Slight Chance
WIND CHILL -- -- -- -- -- -- -- -- -- -- -- -- -- -- -- -- -- -- -- -- -- -- -- -- -- -- -- -- -- -- -- -- -- -- -- -- -- -- -- -- -- -- -- -- --
SPRAY COND
DRY COND
LIVESTOCK HEATSTRESS 72.97 71.91 70.62 68.95 67.29 67.29 66.50 66.55 66.55 66.68 66.82 66.82 66.64 69.01 71.74 73.80 76.36 76.12 77.28 75.87 75.56 70.84 67.65 66.95 67.80 74.30 77.68 78.67 76.60 66.50 62.84 73.92 71.55 62.40 60.76 75.01 73.89 64.56 66.28 77.01 74.78 69.01 67.49 74.56 72.41

Click on individual weather variable above in left-hand column (ie., TEMP, RH, QPF 12HR) to view state forecast maps






NWS 48 Hr. Forecast Maps,

Regional Hourly Observations For JACKSON County, Kentucky
Issued at 100 AM EDT THU JUN 04 2020
SOUTHEAST KENTUCKY
  
CITY           SKY/WX    TMP DP  RH WIND       PRES   REMARKS
JACKSON        CLEAR     74  64  71 CALM      29.94S                  
LONDON         CLEAR     69  67  93 CALM      29.94S                  
SOMERSET       MOCLDY    68  63  83 MISG      29.94R                  
MIDDLESBORO    PTCLDY    69  69  99 CALM      29.96S                  
MONTICELLO     CLEAR     68  67  96 W6        29.94R                  


Current NOWCAST not available:
Nowcasts are not issued routinely during fair weather. Only when
precipitation or other significant weather is occuring in this county will these
forecasts be issued. Currently, there is no short term forecast in effect.


Fire Weather Forecast For JACKSON County, KY
Provided by the National Weather Service:

Issued at: Thu Jun 4 01:05:02 EDT 2020

720 AM EDT Wed Jun 3 2020

                      Today        Tonight      Thu          

Cloud Cover           Pcldy        Mclear       Pcldy        
Chance precip (%)     0            0            70           
Precip type           None         None         tstms        
Temp (24H TREND)      88 (+3)      61 (-2)      86           
Rh % (24H TREND)      39 (-8)      100 (+7)     50           
20ftwnd-AM(mph)       SW 3-7 G18                Lgt/Var      
20ftwnd-PM(mph)       W 5-9 G19    Lgt/Var      SW 2-6 G14   
Precip duration                                 2            
Precip begin                                    Continuing   
Precip end                                      Continuing   
Precip amount         0.00         0.00         0.26         
LAL                   1            1            4            
Haines Index (MID)    3                         3            
Mixing hgt(ft-AGL)    5100                      3800         
Transport wnd (mph)   W 16                      SW  9        
Vent rate (kt-ft)     70579                     31860        
ADI Early             74 Good      5 Very Poor  40 Fair      
ADI Late              68 Good      6 Very Poor  30 Fair      
Max LVORI Early       5            5            6            
Max LVORI Late        2            7            3            

Remarks...None.

SPC's Fire Weather Web Tool (Excellent!), SPC's Fire Weather Outlooks, NWS Fire Weather WEB, Fire Danger Class Map,
Keetch-Byram Drought Index, ROMAN Web, Haines Index ,
WFAS's 10-hr Dead Fuel Moist., WFAS's 100-hr Dead Fuel Moist., Probablity of Ignition, Visual blackness Map, Palmer Drought Index, HPC's Rainfall Forecast Maps


Hazardous Weather Outlook For JACKSON County, Kentucky
1116 PM EDT Wed Jun 3 2020

 DAY ONE  Tonight.

No hazardous weather is expected at this time. 

 DAYS TWO THROUGH SEVEN  Thursday through Tuesday.

Thunderstorms are possible at times from Thursday through 
Saturday evening, and again on Tuesday. Some of the storms on
Thursday could produce strong wind gusts.

 SPOTTER INFORMATION STATEMENT  

Spotter activation is not anticipated.

Latest JACKSON County, Kentucky Watches, Warnings and Advisories.
Additional Drought Info.: UKAWC Drought Page, Kentucky Drought Watch


7-Day Forecast For JACKSON County, KY

REST OF TONIGHT
Mostly clear. Lows in the mid 60s. Light winds.

THURSDAY
Partly sunny. A chance of showers and thunderstorms in the morning, then showers and thunderstorms likely in the afternoon. Highs in the lower 80s. Light winds. Chance of rain 60 percent.

THURSDAY NIGHT
Mostly cloudy. A chance of showers and thunderstorms in the evening, then a chance of showers late. Lows in the mid 60s. Light winds. Chance of rain 50 percent.

FRIDAY
Partly sunny with a 50 percent chance of showers and thunderstorms. Highs in the mid 80s. Light winds.

FRIDAY NIGHT
Mostly cloudy. A chance of showers and a slight chance of thunderstorms in the evening, then a chance of showers late. Lows in the mid 60s. Light winds. Chance of rain 40 percent.

SATURDAY
Mostly sunny with a 40 percent chance of showers and thunderstorms. Highs in the upper 80s.

SATURDAY NIGHT
Mostly clear. Lows in the lower 60s.

SUNDAY
Sunny. Highs in the mid 80s.

SUNDAY NIGHT
Partly cloudy. Lows in the upper 50s.

MONDAY
Mostly sunny. Highs in the upper 80s.

MONDAY NIGHT
Partly cloudy. Lows in the lower 60s.

TUESDAY
Mostly sunny with a 30 percent chance of showers and thunderstorms. Highs in the upper 80s.

TUESDAY NIGHT
Mostly cloudy with a 40 percent chance of showers and thunderstorms. Lows in the upper 60s.

WEDNESDAY
Partly sunny with a 50 percent chance of showers and thunderstorms. Highs in the lower 80s.

Ag Weather Center, Department of Biosystems & Agricultural Engineering, University of Kentucky